Location: Lynchburg College Observatory
(37.3822°N, 79.5391°W)
Time: 07:48:11
(UTC-04:00)

Tiangong 2 - Visible Passes

Search period start: 17 July 2018 00:00
Search period end: 27 July 2018 00:00
Orbit: 386 x 394 km, 42.8° (Epoch: 17 July)

Date Brightness Start Highest point End Pass type
(mag) Time Alt. Az. Time Alt. Az. Time Alt. Az.
17 Jul 2.8 21:16:57 10° WNW 21:19:51 32° N 21:22:45 10° ENE visible
17 Jul 2.5 22:54:13 10° WNW 22:57:10 34° N 22:57:16 34° NNE visible
18 Jul 2.8 21:56:30 10° WNW 21:59:21 30° N 22:01:59 11° ENE visible
18 Jul 3.8 23:33:20 10° WNW 23:34:18 18° WNW 23:34:18 18° WNW visible
19 Jul 1.8 22:35:41 10° WNW 22:38:46 47° NNE 22:39:01 46° NNE visible
20 Jul 2.4 21:38:00 10° WNW 21:40:59 35° N 21:43:43 12° ENE visible
20 Jul 3.5 23:14:50 10° WNW 23:16:01 21° WNW 23:16:01 21° WNW visible
21 Jul 1.0 22:17:06 10° WNW 22:20:18 79° NNE 22:20:45 61° E visible
22 Jul 1.7 21:19:25 10° WNW 21:22:32 50° NNE 21:25:29 11° E visible
22 Jul 3.3 22:56:29 10° W 22:57:48 20° W 22:57:48 20° W visible
23 Jul 1.3 21:58:34 10° WNW 22:01:42 55° SSW 22:02:34 38° SSE visible
24 Jul 1.1 21:00:49 10° WNW 21:04:01 85° NNE 21:07:11 10° ESE visible
24 Jul 3.6 22:38:36 10° WSW 22:39:42 14° WSW 22:39:42 14° WSW visible
25 Jul 2.5 21:40:14 10° W 21:43:00 27° SSW 21:44:34 18° S visible
